Regional Weather Roundup
Issued by NWS

Home | Current Version | Previous Version | Graphics & Text | Print | Product List | Glossary On
Versions: 1 2 3 4 5 6 7 8 9 10 11 12 13 14 15 16 17 18 19 20 21 22 23 24 25 26 27 28 29 30 31 32 33 34 35 36 37 38 39 40 41 42 43 44 45 46 47 48 49 50
000
ASUS45 KABQ 160910
RWRNM
NEW MEXICO REGIONAL WEATHER ROUNDUP
NATIONAL WEATHER SERVICE ALBUQUERQUE NM
300 AM MDT MON OCT 16 2017

NOTE: "FAIR" MEANS FEW OR NO CLOUDS BELOW 12,000 FEET AGL WITH NO
       SIGNIFICANT WEATHER OR OBSTRUCTIONS TO VISION.

      THIS PRODUCT IS RELEASED AS TWO VERSIONS.  ONE VERSION NEAR
      THE TOP OF THE HOUR CONTAINING PRELIMINARY DATA FROM ALBUQUERQUE
      AND OTHER STATIONS.  A FINAL VERSION WITH ADDITIONAL DATA IS
      ISSUED ABOUT 10 MINUTES AFTER THE HOUR.

NMZ501-503-504-510>518-161000-
NORTHWEST PLATEAU/NORTHCENTRAL MOUNTAINS

CITY           SKY/WX    TMP DP  RH WIND       PRES   REMARKS
FARMINGTON     FAIR      31  14  49 E7        30.47F WCI  24
LOS ALAMOS     FAIR      48  19  32 CALM      30.54S
SANTA FE       FAIR      39  24  55 NE7       30.50S WCI  34
TAOS           FAIR      29  17  61 N7        30.56F WCI  22
ANGEL FIRE     FAIR      18  13  82 CALM      30.59F

$$
NMZ402-403-502-505>509-161000-
WESTCENTRAL MOUNTAINS/SOUTHWEST MOUNTAINS

CITY           SKY/WX    TMP DP  RH WIND       PRES   REMARKS
GALLUP         FAIR      27  12  53 CALM      30.51S
GRANTS         FAIR      28  17  64 NW9       30.54S WCI  19
SILVER CITY    FAIR      41  25  53 NW3       30.46S

$$
NMZ407-409-411-412-161000-
SOUTHERN DESERTS

CITY           SKY/WX    TMP DP  RH WIND       PRES   REMARKS
DEMING         FAIR      52  30  43 NE9       30.42S
LAS CRUCES     FAIR      54  29  39 SE7       30.44F
HOLLOMAN AFB   FAIR      45  26  48 NE6       30.46S
ALAMOGORDO     FAIR      48  28  46 N6        30.45F
T OR C         FAIR      50  23  34 NW8       30.44F

$$
NMZ519>523-161000-
CENTRAL VALLEYS/CENTRAL HIGHLANDS

CITY           SKY/WX    TMP DP  RH WIND       PRES   REMARKS
ALBUQUERQUE    FAIR      47  27  45 N10       30.47F
DOUBLE EAGLE   FAIR      34  20  54 N3        30.50S
MORIARTY ARPT  FAIR      29  26  90 NW6       30.52F WCI  23
CLINES CORNERS FAIR      37  23  56 W6        30.52F WCI  32
BELEN          FAIR      39  26  61 NW6       30.47S WCI  35
SOCORRO        FAIR      42  25  51 W6        30.46S

$$
NMZ524>526-539-540-161000-
SOUTHCENTRAL MOUNTAINS

CITY           SKY/WX    TMP DP  RH WIND       PRES   REMARKS
RUIDOSO        FAIR      37  27  65 NW3       30.54F

$$
NMZ527>531-161000-
NORTHEAST HIGHLANDS/NORTHEAST PLAINS

CITY           SKY/WX    TMP DP  RH WIND       PRES   REMARKS
LAS VEGAS      FAIR      30  24  78 NE6       30.50F WCI  24
RATON          FAIR      31  26  82 NE6       30.47F WCI  25
CLAYTON        FAIR      40  29  64 W10       30.43F WCI  33

$$
NMZ532>537-161000-
EASTCENTRAL PLAINS

CITY           SKY/WX    TMP DP  RH WIND       PRES   REMARKS
SANTA ROSA     FAIR      38  33  79 S3        30.46F
TUCUMCARI      FAIR      40  33  76 CALM      30.43F
CANNON AFB     CLEAR     42  32  67 CALM      30.49S
CLOVIS AIRPORT FAIR      40  31  70 W5        30.50R

$$
NMZ028-029-538-161000-
SOUTHEAST PLAINS

CITY           SKY/WX    TMP DP  RH WIND       PRES   REMARKS
ROSWELL        FAIR      46  42  86 CALM      30.46F
ARTESIA        FAIR      45  34  65 W6        30.46F
CARLSBAD       FAIR      42  38  85 W6        30.44F
HOBBS          FAIR      43  34  70 CALM      30.47F


$$




USA.gov is the U.S. government's official web portal to all federal, state and local government web resources and services.